Location: Rounton
(54.4000°N, 1.3500°W)
Time: 08:41:42
(UTC+00:00)

Tiros 1 despin weight - Pass Details

Date: 30 November 2021
Orbit: 592 x 641 km, 48.2° (Epoch: 19 January)

Event Time Altitude Azimuth Distance (km) Brightness Sun altitude
Rises 17:38:39 0° 259° (W) 2,824 ? -15.3°
Reaches altitude 10° 17:41:03 10° 251° (WSW) 1,923 ? -15.7°
Maximum altitude 17:45:06 37° 184° (S) 938 ? -16.3°
Enters shadow 17:47:52 18° 127° (SE) 1,488 ? -16.6°
Drops below altitude 10° 17:49:10 10° 118° (ESE) 1,933 - -16.8°
Sets 17:51:35 0° 110° (ESE) 2,841 - -17.2°
